STARLINK-32427, 61848

Orbit data source: Space-Track

STARLINK-32427, 61848 is a payload satellite owned by SpaceX/Seattle (US) in LEO that was launched on Thu, 07 Nov 2024 UTC via an FALCON 9 launch vehicle from the Air Force Eastern Test Range (AFETR). Payload-class satellites include a variety of spacecraft equipped with specific instruments for various scientific and technological missions. These include communications satellites like Starlink; space stations such as the ISS; scientific satellites like the Hubble; Earth observation satellites from companies like Planet Labs, Umbra, and HawkEye 360; GPS; miniature CubeSats for education and research; and military/defense satellites.

Loading next visibility...
Identifier
61848, 2024-202D
Orbit
LEO
Last TLE update
10 hours ago
Origin
Manufacturer
SpaceX/Seattle
Mission
Operational Commercial Communications
Bus & Motor
STARLINK V2M, Unknown motor
Mass
730 kg wet, ~700 kg dry
Launch date (UTC)
2024-11-07 (8 months ago)
Launch vehicle
FALCON 9
Launch site
Air Force Eastern Test Range (AFETR)
Object type
Payload
Rocket body
Debris
Shape & HBR
Box + 2 Pan, 29 m
Radar Cross Section
33.884 m², Large (>1 m²)

Expand to show TLE details & history

TLE from 10 hours ago
0 STARLINK-32427
1 61848U 24202D   25187.42956857 -.00003372  00000-0 -11022-3 0  9992
2 61848  43.0015 177.6434 0001745 286.1866  73.8794 15.28383102 37795
Epoch: 2025-07-06T10:18Z
TLE epoch observation values (Epoch: 2025-07-06T10:18:34.724Z)
Latitude
-0.00001°
Longitude
98.34533°
Altitude
480.089 km
Speed
7.628 km/s
True Right ascension
11h 50m 34s
True Declination
0° 00' 00"
Sunlit
Object was in daylight at epoch
Visualization orbit readout
Latitude
41.74995°
Longitude
-156.11455°
Altitude
484.687 km
Speed
7.628 km/s
Apparent Right ascension
19h 30m 27s
Apparent Declination
2° 45' 43"
Sunlit
Object is in full shadow
Visualization observer readout
Local Sidereal Time
08:09:57
Azimuth
14.374° NNE
Elevation
-46.371°
Doppler factor
1
Orbital elements
Apogee altitude
483.788 km
Perigee altitude
481.394 km
Semi-major axis
6,860.728 km
Eccentricity
0.00017
Inclination
43.0015°
RAAN
177.6434°
Arg. of periapsis
286.1866°
True anomaly
Unknown
Mean anomaly
73.8794°
Eccentric anomaly
Unknown
Mean motion
3.81934 °/min
Orbital period
94.26 mins
BSTAR
-0.00011022
Loading maneuver chart data...
Loading SW <> Apogee altitude chart data...
Loading historical data...
Loading historical data...
Loading historical data...
Loading historical data...
Loading historical data...
Loading historical data...
Loading historical data...

STARLINK-32427 Visibility forecast

Observer location: undefined°, undefined°

Span
Click to sort rows by Start time (UTC) header in descending order
Start Az.
Max El. time (UTC)
Max El. Az.
Max El.
End time (UTC)
End Az.
5 mins2025-07-07 02:11:11.462Z195.894° SSW2025-07-07 02:13:11.462Z158.802° S21.95°2025-07-07 02:16:11.462Z96.112° ESE
5 mins2025-07-07 03:50:11.462Z254.165° W2025-07-07 03:52:11.462Z295.416° NW44.828°2025-07-07 03:55:11.462Z71.129° E
5 mins2025-07-07 05:29:11.462Z291.164° WNW2025-07-07 05:31:11.462Z347.844° N37.685°2025-07-07 05:34:11.462Z73.566° E
6 mins2025-07-07 07:08:11.462Z289.339° WNW2025-07-07 07:10:11.462Z302.769° NW44.005°2025-07-07 07:14:11.462Z107.269° ESE
4 mins2025-07-07 08:47:11.462Z255.649° W2025-07-07 08:49:11.462Z211.162° SW22.339°2025-07-07 08:51:11.462Z169.003° S
|